Regional Weather Roundup
Issued by NWS

Home | Current Version | Previous Version | Text Only | Print | Product List | Glossary Off
Versions: 1 2 3 4 5 6 7 8 9 10 11 12 13 14 15 16 17 18 19 20 21 22 23 24 25 26 27 28 29 30 31 32 33 34 35 36 37 38 39 40 41 42 43 44 45 46 47 48 49 50

000
ASUS43 KFSD 281710
RWRSD

WEATHER ROUNDUP FOR SOUTH DAKOTA
NATIONAL WEATHER SERVICE SIOUX FALLS SD
1200 PM CDT MON JUL 28 2014

NOTE: "FAIR" INDICATES FEW OR NO CLOUDS BELOW 12,000 FEET WITH NO
SIGNIFICANT WEATHER AND/OR OBSTRUCTIONS TO VISIBILITY.


SDZ001>005-009-010-012>017-281800-
NORTHWEST AND NORTH CENTRAL SOUTH DAKOTA

CITY           SKY/WX    TMP DP  RH WIND       PRES   REMARKS
BUFFALO          N/A     73  55  53 E6        30.27S
FAITH            N/A     71  53  52 E3        30.33S
MOBRIDGE       PTSUNNY   69  53  56 VRB3      30.31F
$$

SDZ012>016-024>037-041>051-057-063-072>074-281800-
SOUTHWEST AND SOUTH CENTRAL SOUTH DAKOTA

CITY           SKY/WX    TMP DP  RH WIND       PRES   REMARKS
RAPID CTY ARPT SUNNY     73  57  57 SE10      30.33F
PIERRE         SUNNY     72  53  51 N9        30.30F
CUSTER         SUNNY     71  48  43 VRB5      30.42F
ELLSWORTH AFB  SUNNY     73  57  55 S14       30.32F
PHILIP         SUNNY     75  52  44 N5        30.31F
PINE RIDGE     MOSUNNY   76  55  48 E7        30.34S
WINNER         FAIR      73  50  44 NW7       30.32F
$$

SDZ004>011-016>023-039-040-281800-
NORTHEAST SOUTH DAKOTA

CITY           SKY/WX    TMP DP  RH WIND       PRES   REMARKS
ABERDEEN       MOSUNNY   69  51  52 N10       30.30F
WATERTOWN      PTSUNNY   66  51  58 N13       30.28F
SISSETON         N/A     71  55  56 N9        30.27F
$$

SDZ017-020-022-023-036>040-048>070-281800-
SOUTHEAST SOUTH DAKOTA

CITY           SKY/WX    TMP DP  RH WIND       PRES   REMARKS
SIOUX FALLS    PTSUNNY   69  58  67 NW16      30.27S
HURON          PTSUNNY   69  54  58 N12       30.29F
CHAMBERLAIN    SUNNY     70  52  53 N7        30.32F
MITCHELL       MOSUNNY   69  55  60 N9        30.30F
YANKTON          N/A    N/A N/A N/A MISG        N/A
$$

ABBREVIATIONS USED IN REMARKS
   TC - TEMPERATURE IN CELSIUS
  WCI - WIND CHILL INDEX
   HX - HEAT INDEX
  VSB - VISIBILITY



USA.gov is the U.S. government's official web portal to all federal, state and local government web resources and services.